Tracking 30703 objects as of 12-Jun-2025
HD Live streaming from Space Station
objects crossing your sky now

DELTA 1 DEB

Track DELTA 1 DEB now!
10-day predictions


NORAD ID: 21353
Int'l Code: 1975-052BX
Perigee: 1,099.5 km
Apogee: 1,921.9 km
Inclination: 99.6 °
Period: 116.1 minutes
Semi major axis: 7881 km
RCS: 0.0647 m2 (small)
Launch date: June 12, 1975
Source: United States (US)
Launch site: AIR FORCE WESTERN TEST RANGE (AFWTR)

Note: This is SATELLITE DEBRIS
Your satellite tracking list
Your tracking list is empty




NASA's NSSDC Master Catalog

Two Line Element Set (TLE):
1 21353U 75052BX  25162.76508994  .00000016  00000-0  21907-3 0  9996
2 21353  99.5610 100.2753 0521744   4.2961  22.7737 12.40714030541694
Source of the keplerian elements: AFSPC